TIMESTAMP,CO2_1_1_1,H2O_1_1_1,TAU_1_1_1,TAU_SSITC_TEST_1_1_1,H_1_1_1,H_SSITC_TEST_1_1_1,LE_1_1_1,LE_SSITC_TEST_1_1_1,FC_1_1_1,FC_SSITC_TEST_1_1_1,WD_0_0_1,WS_0_0_1,WS_MAX_0_0_1,U_SIGMA_0_0_1,V_SIGMA_0_0_1,W_SIGMA_0_0_1,USTAR_0_0_1,MO_LENGTH_0_0_1,ZL_0_0_1,FETCH_MAX_0_0_1,FETCH_70_0_0_1,FETCH_80_0_0_1,FETCH_90_0_0_1,PA_0_0_1,RH_0_0_1,TA_0_0_1,VPD_0_0_1,T_SONIC_0_0_1,T_SONIC_SIGMA_0_0_1
[yyyymmddHHMMSS],[mmolCO2 mol-1],[mmolH2O mol-1],[kg m-1 s-2],[#],[W m-2],[#],[W m-2],[#],[umolCO2 m-2 s-1],[#],[Decimal degrees],[m s-1],[m s-1],[m s-1],[m s-1],[m s-1],[m s-1],[m],[#],[m],[m],[m],[m],[kPa],[%],[deg C],[hPa],[deg C],[deg C]
20210402003000,422.24771084595659,2.0261509771953725,1.2501952080861765E-002,1,-0.13623720166942516,2,9.9825218248982731E-002,1,3.8409282148035108E-002,2,200.12213686575237,1.0475445987951364,2.0837095109533972,0.36163491203726278,0.22176566690940672,0.11261427831905342,0.10175320450727744,649.77925424104876,2.9240699631434473E-002,146.34792143078471,939.00000000000000,1557.0000000000000,3512.0000000000000,95.104939057288775,29.343448275862070,1.0365517241379507,4.6412252309698303,0.43251271526173696,6.9495544800607392E-002
20210402010000,422.30299023186416,2.0845269460909615,5.4948869543990878E-002,0,-22.301209221829090,0,0.74590531097714841,2,0.27575501666812319,1,175.86491616779631,1.6458277954940141,3.2005789190519782,0.45985110689229208,0.52455831471314784,0.24562598681105199,0.21299183007359954,36.409273807204166,0.52184506894066485,111.71868262189217,204.25738267914414,244.44391900348012,306.01477982171110,95.115810774522572,32.051000000000002,0.20999999999997954,4.2045371338723108,-0.38102263726142382,0.45905743236704238
20210402013000,422.59138399110236,2.2578562501377331,7.7793086576037423E-002,1,-32.956856806707279,0,1.2614362885595085,0,0.50567712567901901,1,164.56114638896679,1.6439607409365611,3.5276389829153305,0.47897958586005546,0.38828186615413540,0.28732893742435389,0.25308521343522883,41.336184112697893,0.45964571737436855,113.12662329058577,206.83154726116121,247.52453655734664,309.87134743977458,95.121001085937507,36.641666666666666,-0.53133333333335031,3.7146483300141213,-1.0557231089273955,0.26886224241262202
20210402020000,422.51412160167450,2.2755011200515556,6.1328963924553094E-002,1,-22.685006951381478,0,2.1496220563204544,1,0.27511339268794111,1,164.22146554255605,1.7538233062487605,3.6202711836739638,0.44637981119280529,0.37267895738088830,0.25870920126881242,0.22468582202581239,42.025252296223705,0.45210912396371972,111.85771274617615,204.51157408771914,244.74812119815277,306.39560487149561,95.134916883463532,37.011666666666663,-0.56033333333334667,3.6851481404696860,-1.0730073360866754,0.35368721405353520
20210402023000,422.46831345821579,2.2054192608373189,5.3084572417511335E-002,0,-23.309505201550092,1,3.1983841416832490,1,0.19618663084387206,2,164.22747922202129,1.8639496318083415,3.2377722781980744,0.44871212247157732,0.40582820453481844,0.27284365568866031,0.20900555937047385,32.924700720624955,0.57707434188150020,101.16961155095746,184.97031630781936,221.36222654248959,277.11923983381757,95.154559855014327,35.940333333333335,-0.58366666666665878,3.7414489243636719,-1.1444313494162088,0.41464799600490054
20210402030000,423.00603528968594,2.2120786647202233,3.3360715631719669E-002,0,-19.325389207261193,0,2.9337761755535245,0,0.41690781379696329,0,148.44472529618554,2.0267012289193489,3.3402420177743370,0.35843017259596183,0.29016043647373835,0.21156911153414854,0.16544983626102189,19.698871346806882,0.96452226452455270,214.95154756922298,1999.0000000000000,3674.0000000000000,9940.0000000000000,95.152488322699654,38.195333333333330,-1.3736666666666792,3.4068119367936487,-1.8475489468044088,0.29500866879262966
20210402033000,422.98031882240139,2.1540821598349922,6.4314690640091585E-002,0,-36.111361642547791,0,4.1290353641106217,0,0.60331865013261554,0,158.44183401982090,2.1141851719008540,3.8262242563554358,0.46994978283442745,0.42417234696450068,0.30336934818278954,0.22964402531725148,28.185938044268145,0.67409500333673711,100.21244579440850,183.22031203248719,219.26791838224543,274.49741453683885,95.135776243055560,37.815333333333335,-1.6013333333333435,3.3708388214991847,-2.1282551201713886,0.32448090449509820
20210402040000,423.02466872757611,2.1605058345912194,7.1697274898695637E-002,0,-42.632656481777538,0,3.3459353989680163,0,0.64706450835689389,0,169.94181581464102,2.0794605644426856,4.1391500309240410,0.56022236994677865,0.46639915045118613,0.31413258354197265,0.24242775139243203,28.087752361344918,0.67645142108801437,101.77248467524687,186.07256065554159,222.68133150957860,278.77060272192324,95.136241642795142,38.168333333333329,-1.6870000000000118,3.3306244820076563,-2.2055622109306796,0.38487231201824579
20210402043000,423.55074005688164,2.2051770558004504,7.5616080067140726E-002,0,-43.159684838440661,0,6.7502498402334057,0,1.2780002718131920,0,176.16130320383303,2.1195657663365925,4.0490803664701600,0.54860230628144735,0.52705437807261479,0.34515289119117420,0.24882774095145183,30.000857394852837,0.63331523329262507,96.375074034822745,176.20437258901353,210.87163076434427,263.98625877896052,95.136791109809025,39.835333333333331,-1.9889999999999759,3.1694324683730257,-2.5160303175184708,0.30621914428301983
20210402050000,424.00531506590767,2.2689176595202554,6.9583808381620635E-002,0,-27.467837791801241,0,1.8344032511446056,0,0.45524514696931784,0,165.28208276907571,1.8696202470692129,3.5849345337882697,0.52303900940140680,0.47399766531717913,0.30371271637619174,0.23849600790481254,41.509659220402170,0.45772478880437112,103.19755551306278,188.67804465010150,225.79943040116930,282.67409252712014,95.140738215494792,42.377333333333333,-2.4393333333333089,2.9360365635878587,-2.9463465932210511,0.30772748233927322
20210402053000,424.08736495642597,2.2676384542859811,4.2661477548883130E-002,0,-35.017708231229939,0,3.7625311293540875,0,0.67899814717791518,0,166.90208490023781,2.0280148723184621,3.9393240119991684,0.53181761046497678,0.48843119061397366,0.29531855092991299,0.18671956078706767,15.624224411259476,1.2160603624143926,171.12043652793304,1488.0000000000000,2683.0000000000000,7019.0000000000000,95.136733892144093,42.603666666666669,-2.5193333333333499,2.9072052960605119,-3.0345351291232419,0.32444863877634017
20210402060000,424.56476834876094,2.2764582280277295,6.4778818193001034E-002,0,-38.180819254813791,0,3.4098768364782197,0,0.61350043704531909,0,163.62291040654617,1.7583550772878254,3.7954464275827644,0.49808747193702091,0.51816697377033816,0.33764007991576250,0.22990013657401837,26.748050940320496,0.71033213008275886,92.071048247385107,168.33524075095798,201.45428975850675,252.19686534198851,95.138154094835073,44.164333333333332,-2.9510000000000218,2.7388668057065844,-3.4707654113769877,0.37861034563410262
20210402063000,425.27274894368855,2.3197877249799137,7.0743499353700862E-002,0,-52.961822004894302,1,6.6030918127125720,1,1.5664932925973492,1,148.98508599686511,2.0320165855647501,4.9487608718699665,0.48807624142188960,0.55518999958359871,0.31917840410243437,0.23998505464182229,21.930215157458264,0.86638456866841429,99.672524399668120,182.23316352380496,218.08655373859986,273.01848618882298,95.117894346333614,47.270333333333333,-3.6116666666666788,2.4620298499565645,-4.1314229092606070,0.55457317699070319
20210402070000,425.99201425730848,2.4012790090482419,0.14221633710759110,0,-62.637466937993516,0,6.4618170581842325,0,1.5243600429556023,0,153.91070360257646,2.0508799266273452,4.6041916263882552,0.67916225296173294,0.58044420321683343,0.40006984458043143,0.33998134331333996,52.716959559787249,0.36041532286117067,109.92850310449921,200.98436357287656,240.52695107402175,301.11120077835250,95.106528097222224,50.747999999999998,-4.0993333333333339,2.2170443006790141,-4.5843931791517321,0.36420021319669416
20210402073000,426.10775059416829,2.4313902241179504,0.13969215688551848,0,-49.852925598277835,0,7.4960750062143324,0,1.6381273112347763,0,161.67857274735732,2.2405703577105074,4.7627552985127402,0.66525709574151692,0.58412665477737757,0.43505686947693817,0.33699650942895254,64.494148572055636,0.29460036950131041,102.07476704265660,186.62522923118297,223.34273464109751,279.59860095763423,95.079985420138897,51.389333333333333,-4.1043333333333294,2.1873528455723279,-4.6015564804076803,0.36945786546313220
20210402080000,426.13086064740156,2.4517398873302150,0.12114256378775352,0,-63.883244011593362,0,9.5056774148041949,0,1.8468542254457689,0,169.61861796158070,2.1880874550266145,4.9006141658409739,0.65048657568620860,0.62239909170484264,0.43899874842929881,0.31377176830665471,40.623734978398517,0.46770687161343394,95.713977974645800,174.99567814523590,209.42513222001088,262.17541424921660,95.076789197497632,52.219333333333331,-4.2069999999999936,2.1334686267016987,-4.7078346867099299,0.33166969234297278
20210402083000,425.90124375421794,2.4327302190250606,0.11361830641098247,0,-60.693249710184290,0,8.8506355702648118,0,1.8740386390693646,0,175.96366574555034,2.4253813701790579,4.8937066044904256,0.66037775123208031,0.60592133561344197,0.43863438087121170,0.30388955913677324,38.842185743418966,0.48915887806903791,93.356677610258814,170.68578125674605,204.26728640751315,255.71840334421901,95.068431747395834,51.768333333333331,-4.1963333333333139,2.1553353168061711,-4.6682669847276088,0.31977162859653313
20210402090000,426.41810147829966,2.4436110820414507,0.11272974838468611,0,-38.870032192751225,0,5.5035046360382740,0,1.0736048046567517,0,160.56283915510852,2.3879512077983986,5.2362068576088632,0.71519177940365675,0.61268047322430841,0.46237369308383808,0.30251964249139918,59.830783955274292,0.31756227720838820,89.179137796501664,163.04790611921067,195.12670060841282,244.27547458511444,95.063224937065968,53.323333333333331,-4.5306666666666615,2.0339658297913084,-5.0324925435384102,0.30064653195691615
20210402093000,426.44944718338542,2.4553409817062852,0.14656911492855573,0,-51.884560254689632,0,5.4697772471021402,0,1.2489705081544946,0,163.35133214882373,2.3468231953477168,4.9416309686648185,0.69118446153328672,0.59459672880747327,0.43521884693782659,0.34482681703669132,66.389601157092073,0.28618939817158884,103.93685495752769,190.02971982204764,227.41704035933293,284.69914824216045,95.080433209550051,54.173333333333332,-4.6743333333333226,1.9753868279297715,-5.1580105666452596,0.27472042133478386
20210402100000,426.01406729478987,2.4792459008531411,0.12539121077509222,0,-63.301204561221972,0,5.9712985490459252,0,1.6837405266638410,0,166.55154937025929,2.3150287887820737,5.2645922510256362,0.73154967936265747,0.64550396249326936,0.47193315739363395,0.31898284265459620,43.077552260589435,0.44106498635445035,91.530190428682346,167.34638016061541,200.27087619038551,250.71537198366329,95.087757934895848,54.354999999999997,-4.5893333333333430,1.9802243739119134,-5.0507491370306639,0.32298851684408497
20210402103000,425.66608590899546,2.4706537273697600,0.16896081268334265,0,-75.071421034744290,0,8.3874503235701425,0,1.5236862211937250,0,166.15693061657419,2.6283360411826933,5.4878630056082454,0.77218852498787705,0.77098683063719664,0.55195985544473625,0.37052288389892807,56.916690009620318,0.33382123937264330,91.029243710397964,166.43048979083028,199.17478933941712,249.34320131264818,95.059366354166684,53.030000000000001,-4.3120000000000118,2.0807610460914798,-4.7907566002739372,0.27136218862875716
20210402110000,426.27694319545981,2.4871372332282915,0.21780037223970769,0,-54.092133439845142,0,7.2703962483139737,0,0.82319214600537549,0,164.41267405114982,2.6243484168295717,5.5711336379268106,0.79772525015448370,0.77325540350001665,0.56677095464503491,0.42063714999065233,115.55723772834034,0.16442068340770197,98.640424398208907,180.34615554972515,215.82828714218775,270.19140438577779,95.040552302734369,53.813333333333333,-4.4209999999999923,2.0293264014769883,-4.9241615753173846,0.23079816864849673
20210402113000,426.53629613305759,2.4934059197982315,0.13776025934756941,0,-33.750422397909723,0,3.7990402858605590,0,0.64741530750826215,0,151.66725759401973,2.5781514582243417,5.5591483086468632,0.76622866576132898,0.68346049972471745,0.49709845795537944,0.33427559792956596,92.947014834078104,0.20441753867961596,91.155883885838435,166.66202842134783,199.45188194435525,249.69008837302607,95.038660295154315,55.690333333333335,-4.8419999999999845,1.8859424533224114,-5.3354925832823028,0.18603249787886614
20210402120000,426.60244674405391,2.5245336571205610,0.21505005304275743,0,-35.805814823285793,0,6.3968151369309476,0,1.0473717632476218,0,151.13087770839994,2.4768811094637546,5.8910968299947735,0.84754591791817058,0.75482869125743535,0.57427136198577744,0.41754711758382529,170.78622992523489,0.11125018690510138,97.034364167602718,177.40976522153846,212.31417788390260,265.79215659377911,95.065470848741313,56.656666666666666,-4.9016666666666424,1.8365033972275933,-5.4036942003037893,0.15909183235817029
20210402123000,426.64931086048392,2.5517125875563558,0.28201265276959253,0,-23.591563438905567,0,9.7602417332452855,0,1.3163838034276418,0,155.33116388498678,2.5795269200113924,6.5252549746818422,0.94242298101397648,0.81270699296563931,0.65151804129791158,0.47833476798986113,389.71098141374193,4.8754079064116475E-002,97.791093373585852,178.79330755647732,213.96992469718145,267.86495512593984,95.068766258029513,56.380666666666670,-4.6949999999999932,1.8773053163636886,-5.1997745463053207,0.17149718781978179
20210402130000,426.32046827887143,2.5825672447824450,0.32372044243775810,0,-32.101884824419926,1,15.255894506821322,0,2.3551466917269508,0,161.76475557242213,2.4394088845758293,6.1111731852147644,0.98786677237707932,0.88412316110612521,0.67484085573472252,0.51328002163913033,353.86167803228676,5.3693296504026690E-002,100.59520831127502,183.92012398916270,220.10541455991833,275.54586037037359,95.066124183810757,53.640666666666668,-3.8740000000000236,2.1224473273373268,-4.3667462463378683,0.29532003633838505
20210402133000,425.34764343519214,2.5998046107743642,0.38164801320484126,0,11.338272618006600,2,19.519250831868010,0,2.3594888589283873,0,159.31907353003135,2.7121176873871793,6.8416501021482610,1.1595733600263864,0.94464725090649360,0.76720660086305792,0.55898343087416724,-1293.7014260831936,-1.4686541745203405E-002,97.195057975650016,177.70356475331039,212.66578088598615,266.23232182965768,95.027583655598960,48.254666666666665,-2.3709999999999809,2.6499564954192438,-2.8623500569662497,0.56078236099225054
20210402140000,423.92844673347440,2.5669702832408694,0.69653614556989774,0,72.687712289655693,1,30.780373893754348,0,2.0009881826686029,1,169.26311158056635,2.7262936063628858,9.0678677979648672,1.5376945566017177,1.1765248504913079,0.91140601566097457,0.75820890539023544,-503.40195510243137,-3.7743198665436080E-002,108.07282202299373,197.59158671675885,236.46666370454886,296.02820280299915,94.971204615617026,41.013333333333335,-0.33899999999999864,3.5071799859154384,-0.84286797298091187,0.51157909057563078
20210402143000,423.64274065425502,2.5307046919931784,0.73843834287096066,0,100.46075898483446,0,29.357655678513783,0,1.6188751310581428,0,167.46965068870333,3.3169295274017658,10.143183033028691,1.6623480424721215,1.5111190835687407,1.1113419616510629,0.78263913347871994,-400.44855719892604,-4.7446793498026260E-002,94.585807851122311,172.93302334802871,206.95666123713983,259.08518149808481,94.923524519748256,36.951333333333331,0.89666666666664696,4.0999409106047686,0.30287307400180907,0.27655403053919103
20210402150000,423.50026510667379,2.5210854543256831,1.3759540500976264,0,178.59420451406416,0,27.872826875525686,0,0.95249531563831646,1,157.54121383594023,4.5097233824036893,12.434102895934242,2.3133404137434423,1.7054335226080630,1.2987606982915738,1.0697354310865754,-575.12491687817669,-3.3036301231971474E-002,107.21429490226549,196.02192532688628,234.58817991798423,293.67656401121542,94.904660301866329,35.080666666666666,1.5633333333333326,4.4289196192231808,0.91184689161514143,0.30102016669877485
20210402153000,423.48634671115178,2.5257505933468463,1.2650503059032383,0,212.10248245278825,0,24.431665937272896,0,-6.3437194735169414E-002,1,162.13856395304134,4.7610119524386292,12.883079540080017,2.3826693330917816,1.7740738674785577,1.2611458902151729,1.0271092196224483,-428.56345659692533,-4.4334158005146895E-002,106.25171255860189,194.26201780277665,232.48202009827850,291.03990184295992,94.875903029296865,33.511666666666663,2.2246666666666783,4.7556762815262159,1.5669432576497684,0.38507260788389780
20210402160000,423.09533929023542,2.5326579445675734,1.3074349509688916,0,235.30043403201958,0,31.262667179581051,0,0.32080209532888521,2,162.05990706471616,4.5772503393921866,14.441696682423290,2.6182999186601359,1.8959586641138657,1.3089178836450639,1.0461982695031655,-408.05357674751389,-4.6562513068612039E-002,104.66854245049828,191.36747791895482,229.01799513314546,286.70335364276923,94.808815987196198,31.559999999999999,3.0973333333333244,5.2085249325980021,2.4250190862020986,0.55451949809776524
20210402163000,423.06084299872896,2.4873275874924796,1.5430460850326981,0,280.98882535678041,0,47.753174146288252,0,7.2445863709386313E-002,2,158.64662815277612,4.6252138293314120,13.746962932226513,2.4145689063017310,2.2749630203436415,1.4183393161710536,1.1387213454879292,-440.46322352454058,-4.3136405005539370E-002,105.04242899600395,192.05106176913685,229.83607041206187,287.72748681562854,94.761488866102454,29.039333333333335,4.0140000000000100,5.7611925012616290,3.2528852547540055,0.41861116070295856
20210402170000,422.94221984140665,2.4846687641813547,1.5886015962994240,0,300.08865274584173,0,29.144236359747044,0,-0.32466348340413231,2,157.69611227804592,4.2164180998112109,14.412399178646561,2.3721395267230521,1.9838005682397299,1.4000576726359610,1.1573254048839481,-432.79660152921849,-4.3900529562539307E-002,107.52329095292592,196.58686865672934,235.26427279526661,294.52295206547359,94.705112694379238,27.496333333333332,4.7693333333333499,6.2064547172878681,3.9903891407313949,0.44403503612699619
20210402173000,423.18611127155248,2.5008633222174605,1.9192388215101663,0,357.35789536320846,0,30.530739718826482,0,-0.94669409765136914,1,150.56307644036954,5.0056670634093168,14.101839687775493,2.6523470611556479,1.9680690670591208,1.4043711638553080,1.2733230663338146,-483.88131798337406,-3.9265826751039873E-002,115.77645888241904,211.67629184474836,253.32245845886845,317.12965765403851,94.660949030598942,26.874666666666666,5.1836666666666815,6.4432066897919551,4.3593489702013244,0.47639678969157689
20210402180000,423.07961088117719,2.4955778307770915,1.9075585199839045,0,354.23277954737853,0,45.094837287217317,0,0.32259316368986490,0,150.39649935080587,4.8713953625680313,13.834833707759394,2.7362615412239109,2.2217921339150148,1.4285514904726728,1.2710252633128933,-485.28906086067434,-3.9151923116302979E-002,114.04113399090514,208.50356448957328,249.52551414059715,312.37633392936635,94.598959818359376,25.863000000000000,5.6960000000000264,6.7690865575282988,4.8603547837999486,0.50412103590232915
20210402183000,422.81942963593417,2.5106302300603049,1.4274386049962324,0,341.93188784897950,0,44.498191533988162,0,9.2985285746170251E-002,2,151.31185891020056,5.2157702257441620,12.619524159581502,2.3263127414206486,1.9036779095566798,1.4299432181393985,1.1008949702942417,-326.55364992814140,-5.8183394992464416E-002,101.57727923168886,185.71566284713452,222.25421598588750,278.23590476963381,94.545477374701321,25.033333333333331,6.2459999999999809,7.1103259578593638,5.4092227034312828,0.51700077549806300
20210402190000,422.58746487021671,2.5555423371020960,1.6965229395132360,0,364.02398811822820,0,44.551548720398145,0,-0.82773077857764843,1,145.66028017403596,4.8985525166137132,13.844238305205060,2.4512160544226385,2.0080308229682511,1.3882461752438240,1.2020601629706986,-399.12425111678704,-4.7604223363617269E-002,111.58933127812917,204.02088716825023,244.16089427873638,305.66046645126750,94.482911983940951,24.291333333333334,6.9309999999999832,7.5274360310101081,6.0734321000840623,0.52644720249347066
20210402193000,422.60460382119783,2.5882321466960683,1.8067944910323277,0,386.71855447080799,0,43.315030312622682,0,-0.91563253547744616,1,147.08507533845287,4.9305693655007046,13.586557836489593,2.4940139346267309,2.0551882497041256,1.4058883788631398,1.2420572923969098,-414.26277219944137,-4.5864608830582292E-002,113.39855752179842,207.32872976479266,248.11953703201024,310.61621742872859,94.416033388020850,23.762666666666668,7.4273333333333653,7.8422011590301333,6.6403494567871348,0.50925241272930499
20210402200000,422.79686442207566,2.6484313239279769,1.4880261901414358,0,289.45444590175174,0,33.120996354929638,0,-0.19788146561804776,2,146.59400559485050,4.8766121352326151,13.644132273064233,2.4556536308602697,1.8537993301179416,1.3077381003245503,1.1288114082726211,-415.27894283262424,-4.5752380003668616E-002,111.31030948502455,203.51074634101832,243.55038600032509,304.89618253224432,94.355420157048755,23.283000000000001,8.0539999999999736,8.2361589837493874,7.1456439310387623,0.48181029636293943
20210402203000,422.11818562933877,2.7313168106607724,1.3617981889327495,0,272.73259509736624,0,36.626186913564212,0,-7.4788030927965030E-002,0,147.56388987567769,4.2835042445249583,13.999648531041833,2.2777134602570617,1.9766399101312566,1.3724830155584649,1.0810111562763576,-386.96047635254956,-4.9100621797585335E-002,103.44594172568883,189.13217386550127,226.34290708578285,283.35446084496681,94.309156100669554,23.283333333333331,8.5003333333333444,8.4895952336016727,7.6257930866895549,0.42185684544022556
20210402210000,422.13422270754177,2.7354444443581216,1.4025527180905908,0,141.23840166112552,0,29.441293279934698,0,-0.37857072088743643,1,147.83296173621267,5.1398657947811142,13.949489284619631,2.4162403136527177,2.0714530002130527,1.3788754493758630,1.0966543065106304,-779.80963471017969,-2.4364920814374715E-002,104.25350557065744,190.60865813338211,228.10988165509241,285.56650332891229,94.254966218750013,23.905000000000001,8.1259999999999764,8.2094865109035275,7.3369932776557221,0.25049118706539836
20210402213000,421.86091566997879,2.8702970145861779,1.7794915212066269,0,164.67571190433563,0,31.469252113487514,0,-0.27643903733854841,1,144.13930207951006,4.2795300266309075,15.031098212191521,2.5830182027346633,1.6977821907295414,1.3439004737184559,1.2362275515655747,-957.76458792125288,-1.9837860200321140E-002,117.12239617330629,214.13709447717230,256.26741071211796,320.81638841435972,94.209203875217028,24.582333333333334,8.4159999999999968,8.2982524090059400,7.6731447482638941,0.26295269798922644
20210402220000,422.09166082135869,2.9565485871952588,1.3074422752689248,0,139.02162278002135,0,32.593977076067112,0,0.46238526873045516,1,152.79669705952188,5.0329692520865592,13.634027368747356,2.4137114202139598,1.9240425905723175,1.4401073558130386,1.0606131591702683,-716.18773321222397,-2.6529356925427589E-002,98.035781181335238,179.24067490821685,214.50530915799777,268.53519293985062,94.159500180989596,24.706333333333333,8.7710000000000150,8.4862494736347962,8.0008557001749523,0.22666877759684873
20210402223000,422.41056682835369,3.0383754700246786,1.0726108525586380,0,54.605386863902872,0,23.666201961208071,0,2.6642010903242884E-002,2,153.74060936835221,4.6250155416746157,13.385109212888667,2.1984531434564523,1.8389806846045504,1.2829411207437953,0.96049152764762302,-1353.7965238985337,-1.4034605396448810E-002,99.330895372150721,181.60855670451321,217.33905890271524,272.08271135525945,94.118922217447917,25.769333333333332,8.5456666666666479,8.2397691318433939,7.8678055996365401,0.15853878183181541